HP3ICC-23 Weather Reports


time (UTC)temp
C
wind
direction
speed
KPH
gust
KPH
rain 1hr
cm
rain 24hr
cm
rain mn
cm
humidity
%
barometer
mb
20260503014211 15 9 3.2 4.8 0.00 0.00 0.00 89 1014.0
20260503014111 15 9 3.2 4.8 0.00 0.00 0.00 89 1014.0
20260503012211 13 22 1.6 4.8 0.00 0.00 0.00 83 1013.0
20260503012110 13 22 1.6 4.8 0.00 0.00 0.00 83 1013.0
20260503010210 14 22 1.6 4.8 0.00 0.00 0.00 83 1014.0
20260503010110 14 22 1.6 4.8 0.00 0.00 0.00 83 1014.0
20260503004210 15 22 1.6 4.8 0.00 0.00 0.00 83 1014.0
20260503004110 15 22 1.6 4.8 0.00 0.00 0.00 83 1014.0
20260503002209 15 22 3.2 4.8 0.00 0.00 0.00 83 1012.0
20260503002109 15 22 3.2 4.8 0.00 0.00 0.00 83 1012.0
20260503000211 14 18 1.6 4.8 0.10 0.00 0.00 83 1013.0
20260503000108 14 18 1.6 4.8 0.10 0.00 0.00 83 1013.0
20260502234208 15 18 1.6 4.8 0.18 0.00 0.00 83 1013.0
20260502234108 15 18 1.6 4.8 0.18 0.00 0.00 83 1013.0
20260502232208 15 18 3.2 4.8 0.28 0.00 0.00 83 1011.0
20260502232108 15 18 3.2 4.8 0.28 0.00 0.00 83 1011.0
20260502230207 14 16 4.8 8.0 0.03 0.00 0.00 82 1012.0
20260502230107 14 16 4.8 8.0 0.03 0.00 0.00 82 1012.0
20260502224207 15 16 4.8 8.0 0.00 0.00 0.00 82 1011.0
20260502224106 15 16 4.8 8.0 0.00 0.00 0.00 82 1011.0
20260502222206 15 16 4.8 9.7 0.03 0.00 0.00 82 1009.0
20260502222106 15 16 4.8 9.7 0.03 0.00 0.00 82 1009.0
20260502220205 14 8 4.8 11.3 0.00 0.00 0.00 85 1011.0
20260502220105 14 8 4.8 11.3 0.00 0.00 0.00 85 1011.0
20260502214204 15 8 4.8 11.3 0.00 0.00 0.00 85 1011.0
20260502214104 15 8 4.8 11.3 0.00 0.00 0.00 85 1011.0
20260502212204 15 8 4.8 11.3 0.00 0.00 0.00 85 1010.0
20260502212104 15 8 4.8 11.3 0.00 0.00 0.00 85 1010.0
20260502210204 16 8 4.8 11.3 0.00 0.00 0.00 85 1011.0
20260502210104 16 8 4.8 11.3 0.00 0.00 0.00 85 1011.0
20260502204203 16 8 4.8 11.3 0.08 0.00 0.00 87 1011.0
20260502204103 16 8 4.8 11.3 0.08 0.00 0.00 87 1011.0
20260502202203 15 343 4.8 8.0 0.00 0.00 0.00 86 1010.0
20260502202102 15 343 4.8 8.0 0.00 0.00 0.00 86 1010.0
20260502200202 16 343 4.8 8.0 0.08 0.00 0.00 86 1011.0
20260502194201 16 343 4.8 9.7 0.30 0.00 0.00 86 1011.0
20260502194101 16 343 4.8 9.7 0.30 0.00 0.00 86 1011.0
20260502192201 15 44 4.8 8.0 0.00 0.00 0.00 90 1010.0
20260502192100 15 44 4.8 8.0 0.00 0.00 0.00 90 1010.0
20260502190200 16 44 4.8 8.0 0.08 0.00 0.00 90 1011.0
20260502190059 16 44 4.8 8.0 0.08 0.00 0.00 90 1011.0
20260502184159 16 44 4.8 9.7 0.33 0.00 0.00 90 1011.0
20260502184059 16 44 4.8 9.7 0.33 0.00 0.00 90 1011.0
20260502182158 16 117 1.6 4.8 0.05 0.00 0.00 82 1011.0
20260502182058 16 117 1.6 4.8 0.05 0.00 0.00 82 1011.0
20260502180158 15 117 1.6 4.8 0.05 0.00 0.00 85 1012.0
20260502170157 15 155 3.2 4.8 0.05 0.00 0.00 84 1013.0
20260502164156 15 155 3.2 4.8 0.05 0.00 0.00 83 1013.0
20260502164056 15 155 3.2 4.8 0.05 0.00 0.00 83 1013.0
20260502162156 16 170 3.2 4.8 0.03 0.00 0.00 80 1012.0
20260502162055 16 170 3.2 4.8 0.03 0.00 0.00 80 1012.0
20260502160155 16 170 3.2 4.8 0.03 0.00 0.00 80 1013.0
20260502152154 16 172 3.2 4.8 0.00 0.00 0.00 79 1012.0
20260502152054 16 172 3.2 4.8 0.00 0.00 0.00 79 1012.0
20260502150153 16 172 3.2 4.8 0.00 0.00 0.00 79 1013.0
20260502130151 16 24 3.2 6.4 0.00 0.00 0.00 86 1012.0
20260502122150 14 18 4.8 6.4 0.00 0.00 0.00 92 1011.0
20260502122049 14 18 4.8 6.4 0.00 0.00 0.00 92 1011.0
20260502120149 14 18 4.8 6.4 0.00 0.00 0.00 92 1012.0
20260502114149 14 18 4.8 6.4 0.00 0.00 0.00 92 1012.0
20260502114051 14 18 4.8 6.4 0.00 0.00 0.00 92 1012.0
20260502112148 13 21 4.8 4.8 0.00 0.00 0.00 81 1011.0
20260502112048 13 21 4.8 4.8 0.00 0.00 0.00 81 1011.0
20260502110148 13 21 4.8 4.8 0.00 0.00 0.00 89 1012.0
20260502110047 13 21 4.8 4.8 0.00 0.00 0.00 89 1012.0
20260502104147 13 21 4.8 4.8 0.00 0.00 0.00 89 1012.0
20260502104047 13 21 4.8 4.8 0.00 0.00 0.00 89 1012.0
20260502102147 14 21 4.8 4.8 0.00 0.00 0.00 89 1011.0
20260502102047 14 21 4.8 4.8 0.00 0.00 0.00 89 1011.0
20260502100146 13 16 4.8 4.8 0.00 0.00 0.00 90 1011.0
20260502090146 13 16 4.8 4.8 0.00 0.00 0.00 91 1011.0
20260502070142 15 346 3.2 4.8 0.00 0.00 0.00 93 1012.0
20260502070042 15 346 3.2 4.8 0.00 0.00 0.00 93 1012.0
20260502064142 14 46 1.6 1.6 0.00 0.00 0.00 93 1012.0
20260502064041 14 46 1.6 1.6 0.00 0.00 0.00 93 1012.0
20260502062141 15 46 1.6 1.6 0.00 0.00 0.00 93 1012.0
20260502062041 15 46 1.6 1.6 0.00 0.00 0.00 93 1012.0
20260502060141 13 72 1.6 1.6 0.00 0.00 0.00 93 1012.0
20260502060040 13 72 1.6 1.6 0.00 0.00 0.00 93 1012.0
20260502054040 14 72 1.6 1.6 0.00 0.00 0.00 93 1012.0
20260502052140 15 72 1.6 1.6 0.00 0.00 0.00 93 1012.0
20260502052040 15 72 1.6 1.6 0.00 0.00 0.00 93 1012.0
20260502050139 14 72 1.6 1.6 0.00 0.00 0.00 95 1013.0
20260502050039 14 72 1.6 1.6 0.00 0.00 0.00 95 1013.0
20260502044139 15 72 1.6 1.6 0.00 0.00 0.00 95 1013.0
20260502044039 15 72 1.6 1.6 0.00 0.00 0.00 95 1013.0
20260502042138 14 354 1.6 1.6 0.00 0.00 0.00 89 1012.0
20260502042038 14 354 1.6 1.6 0.00 0.00 0.00 89 1012.0
20260502040138 15 354 1.6 1.6 0.00 0.00 0.00 89 1013.0
20260502040038 15 354 1.6 1.6 0.00 0.00 0.00 89 1013.0
20260502034137 15 354 3.2 3.2 0.00 0.00 0.00 93 1013.0
20260502034037 15 354 3.2 3.2 0.00 0.00 0.00 93 1013.0
20260502032137 15 351 1.6 1.6 0.00 0.00 0.00 93 1011.0
20260502032037 15 351 1.6 1.6 0.00 0.00 0.00 93 1011.0
20260502030136 15 351 3.2 3.2 0.00 0.00 0.00 93 1013.0
20260502030036 15 351 3.2 3.2 0.00 0.00 0.00 93 1013.0
20260502024136 15 7 1.6 1.6 0.00 0.00 0.00 91 1013.0
20260502024036 15 7 1.6 1.6 0.00 0.00 0.00 91 1013.0
20260502022135 15 7 1.6 1.6 0.00 0.00 0.00 91 1011.0
20260502022035 15 7 1.6 1.6 0.00 0.00 0.00 91 1011.0
20260502020135 14 79 1.6 1.6 0.00 0.00 0.00 91 1012.0
20260502020035 14 79 1.6 1.6 0.00 0.00 0.00 91 1012.0